Location: Friaudour
(46.0460°N, 1.2873°E)
Time: 00:23:29
(UTC+00:00)

Cosmos 972 Rocket - Pass Details

Date: 14 July 2020
Orbit: 713 x 1151 km, 75.8° (Epoch: 03 August)

Event Time Altitude Azimuth Distance (km) Brightness Sun altitude
Rises 00:34:58 0° 338° (NNW) 3,636 8.5 -21.9°
Reaches altitude 10° 00:37:38 10° 335° (NNW) 2,617 7.5 -21.8°
Maximum altitude 00:43:28 60° 257° (WSW) 962 4.3 -21.6°
Enters shadow 00:44:49 46° 206° (SSW) 1,098 4.3 -21.6°
